Regional Weather Roundup
Issued by NWS Lake Charles, LA

Home | Current Version | Previous Version | Text Only | Print | Product List | Glossary On
Versions: 1 2 3 4 5 6 7 8 9 10 11 12 13 14 15 16 17 18 19 20 21 22 23 24 25 26 27 28 29 30 31 32 33 34 35 36 37 38 39 40 41 42 43 44 45 46 47 48 49 50
000
ASUS44 KLCH 061010
RWRLCH
REGIONAL WEATHER ROUNDUP
NATIONAL WEATHER SERVICE LAKE CHARLES LA
400 AM CST SAT FEB 06 2016

Note: "fair" indicates few or no clouds below 12,000 feet with no
significant weather and/or obstructions to visibility.


ACROSS SOUTHEAST TEXAS

CITY           SKY/WX    TMP DP  RH WIND       PRES   REMARKS
BEAUMONT       CLOUDY    43  39  86 CALM      30.31F
BEAUMONT CITY  DRIZZLE   43  38  85 N5        30.31S
ORANGE         CLOUDY    40  35  82 CALM      30.33S
JASPER         PTCLDY    33  31  92 CALM      30.34S
$$

ACROSS CENTRAL LOUISIANA

CITY           SKY/WX    TMP DP  RH WIND       PRES   REMARKS
LEESVILLE      CLOUDY    35  31  88 E6        30.30F WCI  29
FULLERTON      FAIR      35  30  82 CALM      30.30F
ALEXANDRIA INT CLOUDY    39  31  72 CALM      30.32F
ESLER FIELD    PTCLDY    38  32  79 CALM      30.32F
DERIDDER         N/A     36  32  87 E5        30.33F
OAKDALE          N/A     33  32  98 CALM      30.34R
OPELOUSAS      FAIR      33  30  90 CALM      30.33F
$$

ACROSS SOUTHWEST AND SOUTH CENTRAL LOUISIANA

CITY           SKY/WX    TMP DP  RH WIND       PRES   REMARKS
SULPHUR        CLOUDY    41  36  83 MISG      30.33S
LAKE CHARLES   CLOUDY    40  36  86 CALM      30.32F
CHENNAULT INT  CLOUDY    38  34  86 CALM      30.32F
CAMERON PHI      N/A     46  37  71 E6        30.34F
DEQUINCY       PTSUNNY   32  32 100 CALM      30.32F
JENNINGS       FAIR      41  34  75 CALM      30.31F
LAFAYETTE      CLEAR     37  35  92 E3        30.34F FOG
NEW IBERIA     CLEAR     36  29  75 E3        30.35F
ABBEVILLE      FAIR      33  32  95 E5        30.33F WCI  29
PATTERSON      CLEAR     34  30  86 CALM      30.34F
SALT POINT       N/A     41  38  89 E5        30.33F
$$

SELECTED SITES ACROSS THE REGION

CITY           SKY/WX    TMP DP  RH WIND       PRES   REMARKS
HOUSTON BUSH   PTCLDY    42  36  79 CALM      30.28F
HOUSTON HOBBY  PTCLDY    47  43  86 SE3       30.28F
GALVESTON      PTCLDY    53  45  74 E3        30.30F
COLLEGE STAT   MOCLDY    45  41  86 SE5       30.30F
CONROE         PTCLDY    35  31  85 CALM      30.28F
HUNTSVILLE     TSTM      45  36  70 VRB3      30.30R
LUFKIN         CLOUDY    36  29  75 SE3       30.29F
SHREVEPORT     CLOUDY    38  28  67 E3        30.29F
MONROE         CLOUDY    37  32  82 CALM      30.35F
NATCHEZ MS     CLEAR     34  27  75 CALM      30.34F
BATON ROUGE    CLEAR     32  28  85 NE3       30.36F
N.O. INTL ARPT PTCLDY    39  31  72 CALM      30.36F
SLIDELL        CLEAR     30  28  92 CALM      30.36F
$$

MARINE REPORTS

STATION/POSITION TIME  SKY/WX   TEMP    WIND        PRES    VSBY
                                AIR SEA DIR/SP/G
                 (UTC)          (F)     (DEG/KT/KT) (MB)    (MI)
BUOY 30 S HIGH I 0950            56 58  110/  6/ 10 1025.8F
WVE H/P(F/S)=  3/ 6

SEA RIM ST PARK  1000            53     150/  5/  7 1026.8F
PORT ARTHUR      0900               56  140/  2/  3 1026.7F
SABINE PASS N    0900            52 57  160/  5/  6 1027.9F
TEXAS POINT      NOT AVBL
CALCASIEU PASS   0900            52 56  150/ 10/ 12 1025.6F
LK CHARLES BEACH 0900            42 55              1027.4F
MARSH ISLAND     0900            51     100/  9/ 11   N/A
WVE H/P(F/S)=  0

FRESH WATER LOCK 0900            44 56   80/  6/  8 1026.6F
AMERADA PASS     0900            46 49   10/  1/  1 1028.1F
$$



USA.gov is the U.S. government's official web portal to all federal, state and local government web resources and services.